Regional Weather Roundup
Issued by NWS Little Rock, AR

Home | Current Version | Previous Version | Text Only | Print | Product List | Glossary On
Versions: 1 2 3 4 5 6 7 8 9 10 11 12 13 14 15 16 17 18 19 20 21 22 23 24 25 26 27 28 29 30 31 32 33 34 35 36 37 38 39 40 41 42 43 44 45 46 47 48 49 50
000
ASUS44 KLZK 030005
RWRLZK

WEATHER ROUNDUP FOR ARKANSAS
NATIONAL WEATHER SERVICE LITTLE ROCK AR
700 PM CDT TUE SEP 02 2014

NOTE: "FAIR" INDICATES FEW OR NO CLOUDS BELOW 12,000 FEET WITH NO
SIGNIFICANT WEATHER AND/OR OBSTRUCTIONS TO VISIBILITY.

ARZ001-003-010-029-030100-
NORTHWEST ARKANSAS

CITY           SKY/WX    TMP DP  RH WIND       PRES   REMARKS
FAYETTEVILLE   MOCLDY    77  67  71 SW5       29.99R
6HR MIN TEMP:  67; 6HR MAX TEMP:  81; 6HR PCP: TRACE;

FORT SMITH     CLOUDY    76  69  79 E5        29.96F
6HR MIN TEMP:  70; 6HR MAX TEMP:  78; 6HR PCP:  0.02;

HARRISON       PTCLDY    74  69  85 E7        30.02R
6HR MIN TEMP:  66; 6HR MAX TEMP:  81; 6HR PCP: TRACE;

BENTONVILLE    MOCLDY    79  68  69 N3        30.00S
6HR MIN TEMP:  68; 6HR MAX TEMP:  81;

ROGERS         MOCLDY    78  69  73 CALM      30.00R
6HR MIN TEMP:  67; 6HR MAX TEMP:  79;

SILOAM SPGS    MOCLDY    79  64  61 W3        29.98F
6HR MIN TEMP:  68; 6HR MAX TEMP:  81;

HIGHFILL       MOCLDY    77  67  71 W3        29.98S
SPRINGDALE     MOCLDY    81  68  65 NW9       30.00S
$$

ARZ004-005-016-030100-
NORTH CENTRAL ARKANSAS

CITY           SKY/WX    TMP DP  RH WIND       PRES   REMARKS
BATESVILLE     MOCLDY    79  66  65 CALM      29.96F
6HR MIN TEMP:  75; 6HR MAX TEMP:  82;

FLIPPIN        PTCLDY    75  66  73 CALM      29.99R
6HR MIN TEMP:  68; 6HR MAX TEMP:  77; 6HR PCP:  0.01;

MTN HOME       PTCLDY    75  67  76 S3        29.98R
6HR MIN TEMP:  68; 6HR MAX TEMP:  78; 6HR PCP:  0.01;

$$

ARZ040-041-030100-
WEST CENTRAL ARKANSAS

CITY           SKY/WX    TMP DP  RH WIND       PRES   REMARKS
MENA           PTCLDY    82  72  69 CALM      29.98S HX  87
MOUNT IDA      PTCLDY    80  70  71 CALM      29.95S
6HR MIN TEMP:  73; 6HR MAX TEMP:  88;

$$

ARZ009-017-025-026-028-030100-
NORTHEAST ARKANSAS

CITY           SKY/WX    TMP DP  RH WIND       PRES   REMARKS
CORNING        LGT RAIN  79  72  78 SE3       29.96F
JONESBORO      CLOUDY    78  69  73 CALM      29.95F
6HR MIN TEMP:  78; 6HR MAX TEMP:  85;

NEWPORT        CLOUDY    78  70  76 E3        29.97S
6HR MIN TEMP:  78; 6HR MAX TEMP:  84;

WALNUT RIDGE   PTCLDY    77  70  78 SE3       29.95F
6HR MIN TEMP:  75; 6HR MAX TEMP:  81;

BLYTHEVILLE    CLOUDY    79  71  76 CALM      29.94S
6HR MIN TEMP:  79; 6HR MAX TEMP:  88;

$$

ARZ022-023-033-042-044-030100-
CENTRAL ARKANSAS

CITY           SKY/WX    TMP DP  RH WIND       PRES   REMARKS
LITTLE ROCK    MOCLDY    82  69  64 SE3       29.95R HX  85
6HR MIN TEMP:  80; 6HR MAX TEMP:  88;

N LITTLE ROCK  MOCLDY    81  71  73 NE6       29.95R HX  85
6HR MIN TEMP:  79; 6HR MAX TEMP:  86;

JACKSONVILLE   MOCLDY    81  71  72 NE6       29.95R HX  85
6HR MIN TEMP:  80; 6HR MAX TEMP:  86;

HOT SPRINGS    PTCLDY    86  66  51 W3        29.95S HX  88
6HR MIN TEMP:  73; 6HR MAX TEMP:  89; 6HR PCP: TRACE;

RUSSELLVILLE   MOCLDY    77  69  76 N6        29.97S
6HR MIN TEMP:  71; 6HR MAX TEMP:  78; 6HR PCP:  0.01;

CLINTON        FAIR      79  73  83 S3        29.99R
$$

ARZ036-030100-
EAST ARKANSAS

CITY           SKY/WX    TMP DP  RH WIND       PRES   REMARKS
WEST MEMPHIS   CLOUDY    77  73  87 SW6       29.96S
6HR MIN TEMP:  75; 6HR MAX TEMP:  86; 6HR PCP: TRACE;

$$

ARZ050-053-066-070-073-030100-
SOUTHWEST ARKANSAS

CITY           SKY/WX    TMP DP  RH WIND       PRES   REMARKS
ARKADELPHIA    FAIR      80  74  82 CALM      29.95R
6HR MIN TEMP:  74; 6HR MAX TEMP:  91; 6HR PCP:  0.01;

CAMDEN         CLOUDY    77  72  83 CALM      29.94S
TEXARKANA      CLOUDY    79  72  79 S8        29.93F
6HR MIN TEMP:  79; 6HR MAX TEMP:  91;

EL DORADO      CLOUDY    75  73  93 SE6       29.93F
6HR MIN TEMP:  74; 6HR MAX TEMP:  80; 6HR PCP:  0.04;

DE QUEEN       PTCLDY    86  69  56 E5        29.91F HX  90
6HR MIN TEMP:  76; 6HR MAX TEMP:  89;

$$

ARZ056-057-069-030100-
SOUTHEAST ARKANSAS

CITY           SKY/WX    TMP DP  RH WIND       PRES   REMARKS
PINE BLUFF     CLOUDY    78  73  84 S3        29.96R
6HR MIN TEMP:  75; 6HR MAX TEMP:  80; 6HR PCP:  0.05;

STUTTGART      MOCLDY    79  72  78 NE6       29.98S
6HR MIN TEMP:  73; 6HR MAX TEMP:  88; 6HR PCP:  0.51;

MONTICELLO     CLOUDY    77  72  84 S8        29.94S
6HR MIN TEMP:  77; 6HR MAX TEMP:  82; 6HR PCP:  0.06;


$$




USA.gov is the U.S. government's official web portal to all federal, state and local government web resources and services.